Date String (YYYY-MM-DD hh:mm:ss) UTC,Instrument flags,absolute air pressure of the measurement (hPa),sample flow rate (lpm),inlet stack bypass flow (lpm),air temperature of the measurement (°C),ambient temperature measured by the external sensor (°C),aerosol sample conditioner tube jacket temperature (°C),OPC LED temperature (°C),internal box temperature (°C),relative humidity of the measurement (%),span deviation,mass concentration of particles derived from Lorenz-Mie calculation of OPC scattering (μg/m³),mass concentration of particles derived from Lorenz-Mie calculation of OPC scattering (μg/m³),mass concentration of particles derived from Lorenz-Mie calculation of OPC scattering (μg/m³)
DateTimeUTC,F1_M11,P_M11,Q1_M11,Q2_M11,T1_M11,T2_M11,T3_M11,T4_M11,T5_M11,U1_M11,ZSPAN_M11,X2_M11,X0_M11,X1_M11
2024-01-30 06:00:00,SystemResetWarning,0837.2,5.00,000.00,024.5,023.2,000.0,032.9,025.9,15.7,0000.0,0002.95,0008.97,0002.18
2024-01-30 06:01:00,SystemResetWarning,0837.2,5.00,000.00,024.5,023.2,000.0,032.9,025.9,15.7,0000.0,0002.92,0008.53,0002.16
2024-01-30 06:02:00,SystemResetWarning,0837.2,5.00,000.00,024.5,023.2,000.0,032.9,025.9,15.7,0000.0,0002.92,0008.21,0002.15
2024-01-30 06:03:00,SystemResetWarning,0837.2,5.00,000.00,024.5,023.2,000.0,032.9,025.9,15.7,0000.0,0002.87,0008.61,0002.13
2024-01-30 06:04:00,SystemResetWarning,0837.2,5.00,000.00,024.5,023.2,000.0,032.9,025.9,15.7,0000.0,0002.83,0008.83,0002.12
2024-01-30 06:05:00,SystemResetWarning,0837.2,5.00,000.00,024.5,023.2,000.0,032.9,025.9,15.7,0000.0,0002.81,0008.86,0002.12
2024-01-30 06:06:00,SystemResetWarning,0837.2,5.00,000.00,024.5,023.2,000.0,032.9,025.9,15.8,0000.0,0002.75,0008.83,0002.11
2024-01-30 06:07:00,SystemResetWarning,0837.2,5.00,000.00,024.5,023.2,000.0,032.8,025.9,15.8,0000.0,0002.68,0008.85,0002.10
2024-01-30 06:08:00,SystemResetWarning,0837.2,5.00,000.00,024.5,023.1,000.0,032.8,025.8,15.8,0000.0,0002.68,0008.34,0002.09
2024-01-30 06:09:00,SystemResetWarning,0837.1,5.00,000.00,024.4,023.1,000.0,032.8,025.8,15.8,0000.0,0002.66,0007.41,0002.09
2024-01-30 06:10:00,SystemResetWarning,0837.1,5.00,000.00,024.4,023.1,000.0,032.8,025.7,15.8,0000.0,0002.65,0006.88,0002.07
2024-01-30 06:11:00,SystemResetWarning,0837.1,4.99,000.00,024.4,023.1,000.0,032.8,025.7,15.8,0000.0,0002.64,0006.56,0002.06
2024-01-30 06:12:00,SystemResetWarning,0837.0,5.00,000.00,024.4,023.1,000.0,032.8,025.7,15.8,0000.0,0002.59,0006.26,0002.06
2024-01-30 06:13:00,SystemResetWarning,0837.1,5.01,000.00,024.4,023.1,000.0,032.8,025.7,15.8,0000.0,0002.54,0006.08,0002.04
2024-01-30 06:14:00,SystemResetWarning,0837.1,5.00,000.00,024.4,023.1,000.0,032.8,025.7,15.9,0000.0,0002.56,0005.56,0002.03
2024-01-30 06:15:00,SystemResetWarning,0837.1,5.00,000.00,024.4,023.1,000.0,032.8,025.7,15.9,0000.0,0002.54,0004.39,0002.03
2024-01-30 06:16:00,SystemResetWarning,0837.1,5.00,000.00,024.4,023.1,000.0,032.8,025.7,15.9,0000.0,0002.55,0004.35,0002.02
2024-01-30 06:17:00,SystemResetWarning,0837.0,5.00,000.00,024.4,023.1,000.0,032.7,025.7,15.9,0000.0,0002.53,0004.19,0002.02
2024-01-30 06:18:00,SystemResetWarning,0837.1,5.00,000.00,024.4,023.0,000.0,032.7,025.7,15.9,0000.0,0002.55,0004.21,0002.01
2024-01-30 06:19:00,SystemResetWarning,0837.1,5.00,000.00,024.4,023.0,000.0,032.7,025.7,15.9,0000.0,0002.55,0005.98,0002.01
2024-01-30 06:20:00,SystemResetWarning,0837.0,5.00,000.00,024.4,023.0,000.0,032.7,025.7,15.9,0000.0,0002.59,0006.45,0002.01
2024-01-30 06:21:00,SystemResetWarning,0837.0,5.00,000.00,024.3,023.0,000.0,032.7,025.7,15.9,0000.0,0002.62,0006.77,0002.01
2024-01-30 06:22:00,SystemResetWarning,0837.0,5.00,000.00,024.3,023.0,000.0,032.7,025.6,15.9,0000.0,0002.58,0007.11,0001.99
2024-01-30 06:23:00,SystemResetWarning,0837.0,5.01,000.00,024.3,023.0,000.0,032.7,025.6,15.9,0000.0,0002.61,0007.16,0001.99
2024-01-30 06:24:00,SystemResetWarning,0837.0,4.99,000.00,024.3,023.0,000.0,032.7,025.6,15.9,0000.0,0002.63,0007.18,0001.99
2024-01-30 06:25:00,SystemResetWarning,0837.0,5.00,000.00,024.3,023.0,000.0,032.7,025.6,15.9,0000.0,0002.67,0007.23,0001.99
2024-01-30 06:26:00,SystemResetWarning,0836.9,5.00,000.00,024.3,023.0,000.0,032.7,025.6,15.9,0000.0,0002.66,0007.36,0001.99
2024-01-30 06:27:00,SystemResetWarning,0836.9,5.00,000.00,024.3,023.0,000.0,032.7,025.6,15.9,0000.0,0002.67,0008.12,0001.97
2024-01-30 06:28:00,SystemResetWarning,0837.0,5.00,000.00,024.3,022.9,000.0,032.6,025.6,15.9,0000.0,0002.65,0008.10,0001.97
2024-01-30 06:29:00,SystemResetWarning,0836.9,5.01,000.00,024.3,023.0,000.0,032.6,025.6,15.9,0000.0,0002.70,0008.34,0001.96
2024-01-30 06:30:00,SystemResetWarning,0837.0,5.01,000.00,024.2,022.9,000.0,032.6,025.6,15.9,0000.0,0002.68,0008.00,0001.95
2024-01-30 06:31:00,SystemResetWarning,0837.0,5.00,000.00,024.2,022.9,000.0,032.6,025.6,15.9,0000.0,0002.65,0007.30,0001.95
2024-01-30 06:32:00,SystemResetWarning,0837.0,5.01,000.00,024.2,022.9,000.0,032.6,025.6,15.9,0000.0,0002.64,0007.00,0001.94
2024-01-30 06:33:00,SystemResetWarning,0836.9,5.00,000.00,024.2,022.9,000.0,032.6,025.6,15.9,0000.0,0002.64,0007.00,0001.93
2024-01-30 06:34:00,SystemResetWarning,0836.9,4.99,000.00,024.2,022.9,000.0,032.6,025.5,15.9,0000.0,0002.61,0007.24,0001.92
2024-01-30 06:35:00,SystemResetWarning,0836.9,5.00,000.00,024.2,022.9,000.0,032.6,025.5,15.9,0000.0,0002.63,0008.01,0001.90
2024-01-30 06:36:00,SystemResetWarning,0836.9,4.99,000.00,024.2,022.9,000.0,032.6,025.5,15.9,0000.0,0002.62,0008.05,0001.89
2024-01-30 06:37:00,SystemResetWarning,0836.9,5.00,000.00,024.2,022.9,000.0,032.6,025.5,15.9,0000.0,0002.57,0008.01,0001.87
2024-01-30 06:38:00,SystemResetWarning,0836.9,5.00,000.00,024.2,022.9,000.0,032.6,025.5,15.9,0000.0,0002.61,0007.50,0001.87
2024-01-30 06:39:00,SystemResetWarning,0836.8,5.00,000.00,024.2,022.8,000.0,032.5,025.5,15.9,0000.0,0002.62,0007.20,0001.88
2024-01-30 06:40:00,SystemResetWarning,0836.8,5.01,000.00,024.2,022.9,000.0,032.5,025.5,15.9,0000.0,0002.63,0007.39,0001.87
2024-01-30 06:41:00,SystemResetWarning,0836.8,5.01,000.00,024.2,022.8,000.0,032.5,025.5,15.9,0000.0,0002.63,0007.39,0001.87
2024-01-30 06:42:00,SystemResetWarning,0836.8,5.01,000.00,024.1,022.8,000.0,032.5,025.5,16.0,0000.0,0002.68,0007.76,0001.85
2024-01-30 06:43:00,SystemResetWarning,0836.8,4.99,000.00,024.1,022.8,000.0,032.5,025.5,16.0,0000.0,0002.64,0007.79,0001.84
2024-01-30 06:44:00,SystemResetWarning,0836.8,4.99,000.00,024.1,022.8,000.0,032.5,025.5,16.0,0000.0,0002.64,0007.98,0001.83
2024-01-30 06:45:00,SystemResetWarning,0836.8,5.00,000.00,024.1,022.8,000.0,032.5,025.5,16.0,0000.0,0002.65,0008.00,0001.83
2024-01-30 06:46:00,SystemResetWarning,0836.8,5.00,000.00,024.1,022.8,000.0,032.5,025.5,16.0,0000.0,0002.59,0007.47,0001.81
2024-01-30 06:47:00,SystemResetWarning,0836.8,5.00,000.00,024.1,022.8,000.0,032.5,025.5,16.0,0000.0,0002.59,0007.15,0001.81
2024-01-30 06:48:00,SystemResetWarning,0836.8,5.01,000.00,024.1,022.8,000.0,032.5,025.5,16.0,0000.0,0002.62,0007.20,0001.81
2024-01-30 06:49:00,SystemResetWarning,0836.8,5.00,000.00,024.1,022.8,000.0,032.5,025.4,16.0,0000.0,0002.56,0007.55,0001.81
2024-01-30 06:50:00,SystemResetWarning,0836.8,5.00,000.00,024.1,022.7,000.0,032.5,025.4,16.0,0000.0,0002.58,0007.64,0001.80
2024-01-30 06:51:00,SystemResetWarning,0836.8,5.00,000.00,024.1,022.8,000.0,032.4,025.4,16.0,0000.0,0002.59,0007.86,0001.81
2024-01-30 06:52:00,SystemResetWarning,0836.8,5.00,000.00,024.0,022.7,000.0,032.4,025.4,16.0,0000.0,0002.61,0007.86,0001.82
2024-01-30 06:53:00,SystemResetWarning,0836.8,5.00,000.00,024.0,022.7,000.0,032.4,025.4,16.0,0000.0,0002.59,0007.55,0001.84
2024-01-30 06:54:00,SystemResetWarning,0836.8,5.00,000.00,024.0,022.7,000.0,032.4,025.4,16.0,0000.0,0002.61,0007.39,0001.86
2024-01-30 06:55:00,SystemResetWarning,0836.8,5.00,000.00,024.0,022.7,000.0,032.4,025.4,16.0,0000.0,0002.63,0007.42,0001.88
2024-01-30 06:56:00,SystemResetWarning,0836.8,5.00,000.00,024.0,022.7,000.0,032.4,025.4,16.0,0000.0,0002.62,0006.16,0001.90
2024-01-30 06:57:00,SystemResetWarning,0836.8,5.00,000.00,024.0,022.7,000.0,032.4,025.4,16.0,0000.0,0002.65,0006.29,0001.92
2024-01-30 06:58:00,SystemResetWarning,0836.8,5.00,000.00,024.0,022.7,000.0,032.4,025.3,16.0,0000.0,0002.65,0006.64,0001.94
2024-01-30 06:59:00,SystemResetWarning,0836.8,5.00,000.00,024.0,022.7,000.0,032.4,025.3,16.0,0000.0,0002.63,0007.19,0001.96
